Theta_e
350 353 353 353 353 355 355 354 353 355 355 353 349 346 342 341 342 340 338 335 331 327 325 325 321 322 322 320 319 316 314 313 309 312 315 317 318 318 318 320 320 319 319
346 348 351 354 353 355 350 351 354 353 352 348 346 343 342 339 338 335 328 326 323 322 321 320 317 317 317 319 317 316 314 314 311 311 315 314 316 318 318 318 317 318 318
343 346 349 352 353 351 348 354 354 351 349 347 344 341 336 334 331 328 322 319 320 320 318 317 316 316 316 315 314 313 313 313 313 311 311 314 315 316 316 317 316 318 316
341 344 347 350 354 347 350 354 353 350 347 343 339 335 331 328 323 319 318 321 320 318 316 316 315 314 314 314 314 314 314 313 315 312 312 312 313 314 313 311 311 313 312
338 342 348 352 351 348 349 350 348 345 339 335 331 328 325 320 317 320 321 318 317 316 316 314 313 309 306 307 312 314 313 312 312 311 310 310 309 308 307 309 308 310 313
337 341 342 340 339 338 340 341 339 335 332 328 326 323 321 316 304 308 316 318 317 316 314 313 312 308 306 303 303 302 303 307 309 308 308 307 308 308 308 306 307 307 307
338 331 328 332 331 329 331 332 330 328 326 325 324 321 317 315 302 304 308 317 316 315 315 313 311 309 310 311 301 301 300 299 299 304 306 307 306 307 306 307 308 308 308
326 324 325 326 324 324 324 326 326 324 323 322 320 317 315 311 301 301 305 317 315 314 313 313 312 309 303 304 310 311 309 308 306 304 306 306 305 305 306 307 308 311 314
321 319 321 320 320 320 324 322 322 320 318 318 315 315 312 310 299 300 308 314 312 311 310 309 309 306 293 295 307 307 307 308 299 298 297 295 295 295 297 306 307 308 308
316 316 317 317 316 317 319 321 320 319 314 314 313 312 307 308 297 299 307 311 310 307 306 302 293 297 292 293 305 304 306 305 307 307 308 302 299 304 298 306 307 306 307
315 314 313 314 312 314 315 320 317 315 313 311 308 310 310 308 304 296 297 310 308 307 306 303 299 292 292 292 293 302 299 299 306 309 311 311 311 311 310 310 309 307 306
309 307 308 308 309 311 314 317 312 312 308 308 308 308 307 307 300 295 295 297 303 307 305 303 296 291 290 291 297 290 292 294 308 308 308 307 307 307 308 309 310 308 308
305 305 306 307 308 310 312 309 308 307 306 305 304 304 303 303 302 295 294 295 296 304 301 291 291 291 292 293 293 293 296 305 305 305 304 304 305 306 309 309 312 313 312
303 303 304 304 304 306 308 307 306 304 304 303 304 303 303 302 301 302 301 300 294 297 294 297 295 295 294 298 299 301 303 302 302 301 301 302 303 302 302 305 306 308 308
301 302 302 303 303 302 301 303 303 301 303 304 304 304 303 303 301 297 299 302 302 296 299 301 301 300 300 301 301 301 300 301 300 300 300 300 300 300 300 302 303 306 305
299 298 299 301 301 298 296 296 290 291 292 292 293 301 298 292 290 289 289 289 289 290 297 298 298 298 298 299 299 299 300 299 299 299 300 300 299 299 299 301 301 301 301
296 298 298 297 296 297 296 294 291 293 291 290 290 291 291 289 288 288 288 288 288 290 297 296 296 296 297 297 298 298 297 299 300 299 299 299 299 299 299 299 299 299 299
295 295 298 299 298 296 297 297 297 297 295 294 291 291 288 288 288 288 288 288 294 294 296 295 295 295 295 296 297 298 298 298 298 298 298 298 299 298 298 298 298 297 298
294 296 298 298 299 298 298 299 299 298 297 294 293 291 289 288 288 288 288 296 294 293 294 293 294 295 295 295 296 298 297 296 297 297 297 297 298 298 298 298 298 291 292
295 293 294 296 298 299 301 300 300 299 299 298 297 295 295 293 296 295 295 294 293 293 293 293 294 294 294 294 295 296 297 296 297 297 297 297 297 298 297 297 297 297 296
298 297 292 299 300 299 299 298 298 300 299 298 297 295 288 297 295 294 294 293 293 292 293 293 293 293 293 293 294 294 294 295 295 296 296 296 296 296 297 297 297 297 296
301 301 301 300 300 299 299 299 299 299 298 297 297 294 287 297 295 293 293 293 293 293 293 293 292 292 292 292 293 293 293 293 294 295 295 295 295 296 296 296 296 296 296
302 301 300 300 299 294 299 300 299 299 298 297 296 296 296 295 295 294 293 293 292 292 292 292 291 291 292 293 293 293 292 292 293 294 294 295 295 294 295 294 294 294 294
301 300 299 298 298 299 299 299 298 294 297 297 297 296 295 294 293 293 292 292 292 292 293 292 292 292 292 292 292 291 290 289 293 294 295 295 294 293 294 293 293 293 293
301 300 299 298 297 297 298 297 297 297 297 297 296 295 295 294 294 294 294 293 292 292 292 292 292 292 291 291 290 289 284 283 288 283 295 294 294 293 293 293 292 292 292
300 300 300 300 300 299 298 297 297 297 297 297 296 296 295 294 294 294 294 294 292 292 291 292 291 291 291 289 287 283 283 283 286 283 289 294 293 292 291 292 291 291 291
Wind_Speed
22 22 19 17 19 17 15 15 18 19 19 20 20 19 16 14 11 9 8 8 8 7 8 8 4 3 1 1 2 3 4 4 7 7 7 6 8 8 9 9 7 7 3
19 19 18 19 20 15 16 19 20 20 20 19 18 17 15 12 12 11 11 10 9 8 8 8 5 2 3 2 2 4 4 5 6 8 6 6 6 7 8 9 8 7 7
18 19 19 18 19 17 18 20 20 21 20 18 17 15 14 14 13 12 12 10 10 9 7 7 5 4 2 4 4 5 5 4 5 6 6 5 6 5 8 7 8 8 8
18 19 20 19 18 18 19 18 20 20 19 17 16 15 15 15 15 14 13 10 11 9 8 7 6 5 4 4 3 3 3 6 3 6 5 5 5 6 7 8 9 8 9
18 19 17 17 18 19 17 18 19 18 17 17 17 16 15 14 11 14 13 12 12 11 9 8 8 10 11 9 7 4 5 5 5 5 5 6 7 9 9 8 9 9 9
17 18 17 16 18 16 16 17 18 17 18 18 17 16 16 10 13 11 13 12 12 10 9 9 9 10 8 8 8 10 9 8 7 7 6 7 7 8 8 9 9 9 8
15 17 17 18 19 18 18 18 19 18 18 18 17 16 14 14 12 11 11 12 11 9 8 6 5 6 3 5 6 4 5 4 3 7 9 8 9 10 10 10 9 9 9
16 15 16 19 18 18 18 21 20 18 18 16 17 16 16 12 12 11 11 13 11 10 8 6 6 6 8 9 4 2 4 3 4 6 7 7 7 8 8 9 9 10 7
17 16 16 18 18 18 20 21 20 20 19 17 14 16 17 15 11 9 10 11 11 11 8 8 6 7 8 8 6 3 4 3 8 8 7 7 8 8 7 9 7 8 7
17 17 16 17 17 17 19 19 18 18 19 16 17 15 16 16 8 5 6 8 10 10 9 9 14 9 6 8 5 4 3 5 6 5 4 10 13 8 9 6 7 7 7
16 19 18 17 18 17 16 14 17 18 18 17 16 16 16 14 9 8 11 7 8 8 7 7 7 5 5 7 9 6 5 7 2 5 3 4 4 5 5 6 6 7 7
15 19 19 18 14 14 17 15 19 18 18 18 16 14 12 12 8 10 11 12 5 7 7 7 8 4 6 9 4 6 11 11 3 4 5 6 6 7 7 7 6 6 6
19 17 18 18 17 15 16 15 15 15 14 13 12 13 11 9 8 10 11 8 12 8 8 8 7 7 7 8 1 9 8 5 5 6 6 7 7 7 8 7 7 5 7
19 18 16 17 18 14 10 12 12 12 12 11 12 12 12 11 10 9 9 9 11 10 12 6 6 7 6 1 6 1 6 6 6 6 6 6 6 7 7 8 8 7 7
17 16 16 14 15 14 13 9 11 10 7 11 11 11 12 11 8 9 6 8 6 5 6 7 5 5 5 4 5 6 6 6 7 6 7 7 8 8 8 8 7 7 6
15 11 11 12 12 11 12 13 23 19 22 19 17 11 11 17 16 15 15 14 6 5 5 6 6 5 5 4 5 6 6 6 6 7 7 8 8 8 9 8 8 9 8
13 13 12 13 11 11 11 11 14 16 24 20 19 15 16 17 15 14 12 9 2 7 7 6 6 5 4 5 5 6 6 6 6 7 7 8 8 8 9 9 9 10 9
13 18 10 10 11 10 10 11 11 14 13 12 12 12 15 14 12 10 10 12 7 6 6 6 6 5 4 5 5 6 6 5 6 7 7 8 8 8 8 9 10 11 11
10 8 9 7 8 9 9 8 9 11 11 12 11 10 11 10 8 6 11 6 7 7 7 6 5 5 4 5 6 5 6 5 6 6 7 8 8 8 8 9 9 8 9
10 10 8 6 6 7 7 8 10 11 13 12 10 11 10 10 8 8 7 7 7 7 6 6 5 5 5 5 5 5 5 5 6 6 7 7 8 8 9 10 10 10 11
6 5 5 6 8 8 9 10 9 10 10 10 10 9 2 7 8 8 7 7 7 7 5 5 5 5 5 5 5 6 6 6 7 7 7 7 8 8 8 8 9 10 10
7 7 7 7 8 9 10 10 10 10 11 11 11 8 3 8 8 8 8 8 7 6 5 5 5 6 7 6 6 6 7 7 7 7 7 7 8 8 8 9 9 10 10
6 7 7 7 8 8 9 10 10 10 10 11 11 9 8 8 8 8 8 7 6 6 5 5 5 6 5 6 6 7 8 8 7 7 7 7 7 8 8 9 9 10 10
6 7 7 8 7 8 9 9 9 9 10 11 9 8 9 8 8 9 7 7 6 6 6 6 7 8 6 6 6 8 9 8 8 7 8 7 7 8 8 8 9 10 10
6 7 8 8 8 6 8 9 9 10 10 9 9 9 9 9 8 8 7 6 6 6 7 6 6 7 9 11 11 12 10 8 9 10 6 7 8 10 9 8 10 9 11
6 7 6 8 8 9 8 9 9 9 9 9 9 9 9 8 8 7 6 6 6 6 7 6 7 8 8 9 11 10 8 9 9 10 10 6 7 8 9 9 12 9 11
Wind_Direction
188 192 193 183 185 178 172 141 150 158 159 159 161 164 163 152 164 146 150 141 144 134 111 111 130 218 9 333 302 314 336 331 311 320 318 358 323 324 329 329 328 314 3
185 186 186 180 177 164 144 151 159 158 157 159 162 163 156 148 146 145 135 141 141 126 115 124 137 134 175 263 312 5 352 326 329 312 331 315 314 314 320 307 342 330 326
184 181 179 177 170 146 149 163 164 159 158 160 161 156 152 147 145 142 128 141 136 128 130 125 140 167 83 26 8 349 349 322 302 308 307 314 323 349 320 329 329 318 322
182 182 176 171 154 151 153 164 161 159 155 150 156 151 146 142 139 133 138 141 124 119 119 118 115 88 52 28 25 348 9 301 319 285 300 323 317 3 332 338 326 336 329
182 181 165 153 153 151 153 157 153 144 148 148 145 140 139 141 137 134 143 137 126 123 119 115 78 67 54 32 342 17 340 329 328 316 321 326 348 343 337 332 323 330 323
181 176 138 141 139 137 137 140 141 145 144 141 138 137 141 126 105 123 141 130 125 127 124 115 117 137 99 70 58 49 35 5 333 335 332 342 325 316 336 334 321 339 343
135 134 133 140 139 135 136 139 141 142 140 135 136 135 119 123 103 108 115 124 127 124 124 123 133 106 234 121 149 183 154 162 280 316 318 326 323 341 327 325 344 330 334
130 130 136 139 136 135 134 137 139 138 134 130 129 122 118 113 98 100 108 118 117 110 104 105 99 90 42 337 312 297 300 294 355 332 329 333 340 338 328 316 305 310 295
131 132 135 132 131 135 137 140 141 134 131 122 116 120 122 123 114 130 130 125 117 113 102 55 98 76 26 347 284 329 295 10 167 198 224 243 249 253 289 305 359 328 351
130 125 124 126 128 131 132 139 136 126 118 119 119 117 114 124 101 106 143 126 131 123 124 103 57 55 24 352 3 336 328 19 16 338 205 220 228 197 222 303 335 338 353
122 118 117 117 116 119 121 128 122 117 114 115 110 121 123 124 110 42 3 142 142 142 139 129 97 71 44 7 332 19 8 311 257 277 338 19 7 25 20 1 344 324 334
101 108 108 108 110 114 116 120 114 119 121 118 123 120 117 117 104 67 48 39 27 123 112 104 105 118 80 41 18 319 284 274 318 357 9 19 5 4 359 345 338 321 310
106 102 104 108 105 109 115 121 118 124 119 129 129 124 125 119 110 83 71 61 40 100 85 83 125 180 155 142 165 279 288 24 14 14 10 9 359 354 323 342 326 316 291
105 106 108 105 104 106 118 119 120 127 130 131 131 131 128 131 140 138 133 117 115 120 154 145 88 79 47 79 200 171 58 37 12 17 12 2 -0 2 356 358 337 348 332
99 107 109 109 106 98 76 86 93 52 109 137 131 137 139 148 114 89 118 149 129 90 152 149 139 102 91 92 83 62 48 40 36 21 18 9 11 10 359 8 357 345 339
97 95 96 98 101 90 92 90 54 59 54 53 59 92 77 84 85 80 75 76 88 261 161 111 95 83 72 69 65 73 52 46 31 30 25 15 9 9 355 9 7 358 351
86 94 91 93 101 109 105 103 101 66 60 58 69 78 84 106 103 106 107 104 347 296 101 92 83 73 72 62 60 53 51 35 24 35 31 21 9 5 359 8 9 4 354
68 71 87 94 92 97 103 109 111 110 107 105 76 91 98 112 122 136 148 160 121 86 89 89 85 76 62 65 58 49 44 26 32 32 29 22 14 6 5 6 13 6 352
68 67 76 79 100 116 117 120 111 110 116 114 123 116 108 109 125 162 218 101 97 95 91 87 79 77 64 65 64 61 49 37 17 24 28 21 14 6 7 3 3 3 348
83 78 79 91 92 90 104 122 129 130 138 145 138 134 137 169 137 108 94 97 96 88 86 87 76 67 59 59 56 50 46 35 31 28 24 19 12 10 4 3 2 358 9
107 118 105 129 140 139 133 132 135 138 133 127 132 129 57 123 116 109 105 98 90 88 83 78 81 74 66 52 45 44 42 39 32 23 19 16 12 8 1 5 0 1 18
122 130 132 135 138 140 131 141 141 133 129 126 118 120 307 115 111 106 103 95 90 83 80 77 75 61 51 41 30 32 39 39 30 17 13 12 16 359 3 6 5 4 3
119 116 118 123 106 123 140 130 130 128 127 122 134 153 133 112 106 98 95 91 93 88 77 70 72 68 60 52 44 34 30 22 17 13 1 7 13 358 5 6 4 1 359
134 131 123 120 133 133 130 130 121 118 129 133 140 128 118 117 116 111 111 115 110 102 93 79 65 56 54 55 48 54 38 18 347 3 349 5 9 357 2 8 2 5 -0
149 149 144 140 145 139 126 128 132 135 135 139 133 128 126 125 124 121 117 116 106 97 87 85 85 81 65 53 47 41 34 1 350 322 332 8 10 7 3 8 359 3 8
158 155 155 149 149 148 149 145 144 141 138 134 131 133 135 135 127 124 120 117 113 99 100 93 86 77 73 63 47 35 14 354 350 335 316 8 4 34 353 4 2 4 3